| time (UTC) | temp C | wind direction | speed KPH | gust KPH | rain 1hr cm | rain 24hr cm | rain mn cm | humidity % | barometer mb |
| 20260506081518 | 16 | 185 | 4.8 | 8.0 | 0.00 | 0.00 | 0.00 | 81 | 1009.0 |
| 20260506073013 | 16 | 211 | 4.8 | 9.7 | 0.00 | 0.00 | 0.00 | 76 | 1009.1 |
| 20260506071510 | 17 | 192 | 3.2 | 9.7 | 0.00 | 0.00 | 0.00 | 75 | 1009.2 |
| 20260506061503 | 17 | 214 | 4.8 | 11.3 | 0.00 | 0.00 | 0.00 | 71 | 1009.6 |
| 20260506050103 | 17 | 211 | 4.8 | 11.3 | 0.00 | 0.00 | 0.00 | 71 | 1010.0 |
| 20260506044559 | 17 | 207 | 4.8 | 9.7 | 0.00 | 0.00 | 0.00 | 71 | 1010.3 |
| 20260506043051 | 17 | 181 | 4.8 | 11.3 | 0.00 | 0.00 | 0.00 | 70 | 1010.2 |
| 20260506041553 | 17 | 226 | 6.4 | 12.9 | 0.00 | 0.00 | 0.00 | 70 | 1010.2 |
| 20260506040047 | 18 | 209 | 4.8 | 14.5 | 0.00 | 0.00 | 0.00 | 70 | 1010.3 |
| 20260506034546 | 18 | 238 | 3.2 | 11.3 | 0.00 | 0.00 | 0.00 | 69 | 1010.2 |
| 20260506033045 | 18 | 205 | 4.8 | 12.9 | 0.00 | 0.00 | 0.00 | 68 | 1010.1 |
| 20260506031556 | 18 | 209 | 4.8 | 9.7 | 0.00 | 0.00 | 0.00 | 66 | 1010.2 |
| 20260506030058 | 18 | 207 | 4.8 | 11.3 | 0.00 | 0.00 | 0.00 | 63 | 1010.0 |
| 20260506024544 | 19 | 174 | 4.8 | 11.3 | 0.00 | 0.00 | 0.00 | 60 | 1009.7 |
| 20260506023043 | 20 | 205 | 4.8 | 9.7 | 0.00 | 0.00 | 0.00 | 58 | 1010.0 |
| 20260506021542 | 20 | 207 | 4.8 | 11.3 | 0.00 | 0.00 | 0.00 | 57 | 1010.0 |
| 20260506020042 | 20 | 201 | 4.8 | 9.7 | 0.00 | 0.00 | 0.00 | 56 | 1010.0 |
| 20260506014541 | 20 | 169 | 3.2 | 12.9 | 0.00 | 0.00 | 0.00 | 56 | 1010.1 |
| 20260506013045 | 20 | 173 | 4.8 | 12.9 | 0.00 | 0.00 | 0.00 | 55 | 1010.0 |
| 20260506011540 | 21 | 205 | 4.8 | 8.0 | 0.00 | 0.00 | 0.00 | 53 | 1009.8 |
| 20260506010039 | 21 | 210 | 3.2 | 9.7 | 0.00 | 0.00 | 0.00 | 51 | 1009.8 |
| 20260506004605 | 21 | 198 | 4.8 | 9.7 | 0.00 | 0.00 | 0.00 | 49 | 1009.8 |
| 20260506003038 | 21 | 214 | 3.2 | 8.0 | 0.00 | 0.00 | 0.00 | 48 | 1009.7 |
| 20260506001537 | 21 | 212 | 3.2 | 9.7 | 0.00 | 0.00 | 0.00 | 47 | 1009.5 |
| 20260506000038 | 22 | 208 | 4.8 | 12.9 | 0.00 | 0.00 | 0.00 | 46 | 1009.1 |
| 20260505234604 | 22 | 191 | 3.2 | 9.7 | 0.00 | 0.00 | 0.00 | 46 | 1009.1 |
| 20260505233035 | 22 | 222 | 3.2 | 9.7 | 0.00 | 0.00 | 0.00 | 45 | 1009.1 |
| 20260505231536 | 22 | 235 | 3.2 | 9.7 | 0.00 | 0.00 | 0.00 | 43 | 1009.0 |
| 20260505230035 | 22 | 210 | 3.2 | 11.3 | 0.00 | 0.00 | 0.00 | 43 | 1008.8 |
| 20260505224534 | 22 | 186 | 6.4 | 12.9 | 0.00 | 0.00 | 0.00 | 42 | 1008.7 |
| 20260505223035 | 23 | 251 | 8.0 | 16.1 | 0.00 | 0.00 | 0.00 | 41 | 1008.7 |
| 20260505221531 | 23 | 224 | 4.8 | 14.5 | 0.00 | 0.00 | 0.00 | 41 | 1008.6 |
| 20260505220030 | 24 | 217 | 8.0 | 16.1 | 0.00 | 0.00 | 0.00 | 39 | 1008.5 |
| 20260505214537 | 25 | 224 | 6.4 | 14.5 | 0.00 | 0.00 | 0.00 | 38 | 1008.3 |
| 20260505213027 | 25 | 232 | 6.4 | 14.5 | 0.00 | 0.00 | 0.00 | 39 | 1008.4 |
| 20260505211526 | 24 | 200 | 9.7 | 19.3 | 0.00 | 0.00 | 0.00 | 38 | 1008.2 |
| 20260505210028 | 25 | 203 | 8.0 | 16.1 | 0.00 | 0.00 | 0.00 | 36 | 1008.0 |
| 20260505204526 | 26 | 264 | 3.2 | 11.3 | 0.00 | 0.00 | 0.00 | 37 | 1008.1 |
| 20260505203024 | 25 | 250 | 9.7 | 19.3 | 0.00 | 0.00 | 0.00 | 38 | 1008.3 |
| 20260505201526 | 26 | 229 | 6.4 | 14.5 | 0.00 | 0.00 | 0.00 | 38 | 1008.2 |
| 20260505200024 | 25 | 202 | 8.0 | 14.5 | 0.00 | 0.00 | 0.00 | 38 | 1008.3 |
| 20260505194517 | 25 | 224 | 4.8 | 12.9 | 0.00 | 0.00 | 0.00 | 39 | 1008.2 |
| 20260505193017 | 25 | 205 | 8.0 | 14.5 | 0.00 | 0.00 | 0.00 | 39 | 1008.4 |
| 20260505191514 | 25 | 240 | 6.4 | 16.1 | 0.00 | 0.00 | 0.00 | 38 | 1008.5 |
| 20260505190013 | 25 | 230 | 9.7 | 16.1 | 0.00 | 0.00 | 0.00 | 39 | 1008.6 |
| 20260505184520 | 25 | 224 | 4.8 | 12.9 | 0.00 | 0.00 | 0.00 | 42 | 1008.8 |
| 20260505183020 | 25 | 225 | 6.4 | 16.1 | 0.00 | 0.00 | 0.00 | 43 | 1009.0 |
| 20260505181504 | 25 | 169 | 6.4 | 12.9 | 0.00 | 0.00 | 0.00 | 44 | 1009.6 |
| 20260505180004 | 25 | 275 | 3.2 | 12.9 | 0.00 | 0.00 | 0.00 | 45 | 1009.6 |
| 20260505174600 | 25 | 214 | 3.2 | 12.9 | 0.00 | 0.00 | 0.00 | 45 | 1009.7 |
| 20260505173056 | 25 | 240 | 4.8 | 11.3 | 0.00 | 0.00 | 0.00 | 46 | 1009.7 |
| 20260505171555 | 25 | 239 | 4.8 | 11.3 | 0.00 | 0.00 | 0.00 | 46 | 1009.8 |
| 20260505170053 | 25 | 166 | 4.8 | 9.7 | 0.00 | 0.00 | 0.00 | 47 | 1010.0 |
| 20260505164557 | 24 | 231 | 1.6 | 11.3 | 0.00 | 0.00 | 0.00 | 50 | 1010.1 |
| 20260505163047 | 24 | 214 | 3.2 | 8.0 | 0.00 | 0.00 | 0.00 | 50 | 1010.2 |
| 20260505161545 | 23 | 288 | 3.2 | 9.7 | 0.00 | 0.00 | 0.00 | 51 | 1010.5 |
| 20260505153045 | 22 | 238 | 6.4 | 12.9 | 0.00 | 0.00 | 0.00 | 53 | 1011.3 |
| 20260505151544 | 22 | 205 | 3.2 | 8.0 | 0.00 | 0.00 | 0.00 | 55 | 1011.1 |
| 20260505124509 | 17 | 250 | 3.2 | 8.0 | 0.00 | 0.00 | 0.00 | 69 | 1011.2 |
| 20260505123006 | 16 | 228 | 0.0 | 4.8 | 0.00 | 0.00 | 0.00 | 73 | 1011.0 |
| 20260505121504 | 16 | 217 | 1.6 | 6.4 | 0.00 | 0.00 | 0.00 | 73 | 1011.0 |
| 20260505120005 | 16 | 210 | 1.6 | 6.4 | 0.00 | 0.00 | 0.00 | 73 | 1011.2 |
| 20260505114502 | 16 | 220 | 1.6 | 4.8 | 0.00 | 0.00 | 0.00 | 73 | 1011.3 |
| 20260505113058 | 15 | 218 | 1.6 | 4.8 | 0.00 | 0.00 | 0.00 | 74 | 1011.3 |
| 20260505111557 | 14 | 201 | 1.6 | 3.2 | 0.00 | 0.00 | 0.00 | 77 | 1011.1 |
| 20260505110106 | 15 | 210 | 0.0 | 1.6 | 0.00 | 0.00 | 0.00 | 75 | 1011.0 |
| 20260505101549 | 13 | 217 | 6.4 | 11.3 | 0.00 | 0.00 | 0.00 | 73 | 1011.4 |
| 20260505100048 | 13 | 287 | 4.8 | 12.9 | 0.00 | 0.00 | 0.00 | 72 | 1011.2 |
| 20260505094546 | 13 | 279 | 3.2 | 8.0 | 0.00 | 0.00 | 0.00 | 72 | 1011.2 |
| 20260505093044 | 13 | 255 | 3.2 | 12.9 | 0.00 | 0.00 | 0.00 | 71 | 1011.1 |
| 20260505091543 | 13 | 232 | 4.8 | 9.7 | 0.00 | 0.00 | 0.00 | 71 | 1010.9 |
| 20260505090044 | 13 | 238 | 3.2 | 6.4 | 0.00 | 0.00 | 0.00 | 71 | 1010.4 |
| 20260505084546 | 13 | 222 | 3.2 | 6.4 | 0.00 | 0.00 | 0.00 | 71 | 1010.5 |
| 20260505083039 | 13 | 245 | 3.2 | 8.0 | 0.00 | 0.00 | 0.00 | 70 | 1010.7 |